Regional Weather Roundup
Issued by NWS

Home | Current Version | Previous Version | Graphics & Text | Print | Product List | Glossary On
Versions: 1 2 3 4 5 6 7 8 9 10 11 12 13 14 15 16 17 18 19 20 21 22 23 24 25 26 27 28 29 30 31 32 33 34 35 36 37 38 39 40 41 42 43 44 45 46 47 48 49 50
000
ASUS43 KLMK 022010
RWRKY
KENTUCKY REGIONAL WEATHER ROUNDUP
NATIONAL WEATHER SERVICE LOUISVILLE KY
400 PM EDT THU JUL 02 2015

NOTE "FAIR" INDICATES FEW OR NO CLOUDS BELOW 12,000 FEET
WITH NO SIGNIFICANT WEATHER AND/OR OBSTRUCTIONS TO VISIBILITY.

KYZ001>023-026-027-061>063-070>075-022100-
WESTERN AND SOUTH CENTRAL KENTUCKY

CITY           SKY/WX    TMP DP  RH WIND       PRES   REMARKS
PADUCAH        CLOUDY    85  71  63 NW9       29.82F HX  90
HENDERSON      PTSUNNY   79  70  73 N5        29.82F
OWENSBORO      PTSUNNY   83  72  69 N7        29.84F
HOPKINSVILLE   RAIN      77  73  88 W10       29.86R VSB 3/4
BOWLING GREEN  LGT RAIN  83  70  64 S15       29.84F
GLASGOW        PTSUNNY   79  70  74 SW8       29.86F
$$

KYZ024-025-028>034-038-045-046-053-022100-
NORTH CENTRAL KENTUCKY

CITY           SKY/WX    TMP DP  RH WIND       PRES   REMARKS
LOUISVILLE/SDF CLOUDY    80  68  66 VRB5      29.85F
LOUISVILLE/LOU RAIN      76  70  82 CALM      29.87S
FORT KNOX      PTSUNNY   76  68  78 SW5       29.86F
$$

KYZ035>037-039>044-047>052-055>060-089>105-022100-
NORTHEAST KENTUCKY

CITY           SKY/WX    TMP DP  RH WIND       PRES   REMARKS
LEXINGTON      CLOUDY    72  68  87 SE3       29.90S
COVINGTON      LGT RAIN  75  67  76 NE9       29.88S
FRANKFORT      CLOUDY    74  69  85 CALM      29.87S
$$

KYZ054-064>069-076>088-106>120-022100-
SOUTHEAST KENTUCKY

CITY           SKY/WX    TMP DP  RH WIND       PRES   REMARKS
JACKSON        MOSUNNY   75  68  78 VRB3      29.92F
LONDON         PTSUNNY   76  64  66 S7        29.92F
SOMERSET       PTSUNNY   75  64  69 SW8       29.91F
MIDDLESBORO    CLOUDY    74  67  78 S9        29.94F
MONTICELLO     PTCLDY    81  70  69 CALM      29.93F
$$




USA.gov is the U.S. government's official web portal to all federal, state and local government web resources and services.